sat.trackr.live / text

‹ back to catalog

STARLINK-32807

NORAD 62845 · 2025-019S

PAYLOAD ACTIVE UNKNOWN

§ Identity

Operator
Country
US
Launch date
2025-01-27
Launch site
AFETR
Launch vehicle
Mass (kg)
RCS (m²)

Purposes: comms

External: N2YO · Heavens-Above · Gunter

§ Orbital elements

Epoch: 2026-05-24T23:23:25.725984Z

Period
94.27 min
Inclination
42.9994°
Eccentricity
0.0001989
Mean motion
15.27603368 rev/d
Perigee alt
481.6 km
Apogee alt
484.3 km
Semi-major
6,861.1 km
B*
6.1059e-4
RAAN
10.7243°
Arg perigee
254.0939°
Mean anomaly
105.9693°
Rev number
7,400

§ Raw data

STARLINK-328071 62845U 25019S   26144.97460331  .00016590  00000+0  61059-3 0  99962 62845  42.9994  10.7243 0001989 254.0939 105.9693 15.27603368 74005

JSON: /api/v1/satellites/62845 · /tle

For live sub-satellite position, see the globe view (requires WebGL).

§ Visibility from observer

Set your observer location to see the next 7 days of passes ≥ 10°. The values pass through the URL so the page stays shareable.

No JS? Fill the form by hand. The geolocation button needs JavaScript.